Regional Weather Roundup
Issued by NWS

Home | Current Version | Previous Version | Graphics & Text | Print | Product List | Glossary On
Versions: 1 2 3 4 5 6 7 8 9 10 11 12 13 14 15 16 17 18 19 20 21 22 23 24 25 26 27
000
ASUS45 KTFX 200810
RWRMT
MONTANA REGIONAL WEATHER ROUNDUP
NATIONAL WEATHER SERVICE GREAT FALLS MT
100 AM MST SAT JAN 20 2018

NOTE: "FAIR" INDICATES FEW OR NO CLOUDS BELOW 12000 FEET WITH NO
SIGNIFICANT WEATHER AND/OR OBSTRUCTIONS TO VISIBILITY.

MTZ001>007-043-200900-
WEST OF THE DIVIDE

CITY           SKY/WX    TMP DP  RH WIND       PRES   REMARKS
KALISPELL      CLOUDY    32  26  78 S5        29.91S
MISSOULA       CLOUDY    30  25  81 SW6       29.95S WCI  24
BUTTE          FAIR       3  -1  83 S6        29.89S WCI  -8
MULLAN PASS    LGT SNOW  22  21  96 VRB5      29.83S FOG
ANACONDA         N/A     18  10  73 CALM      29.90S
DEER LODGE       N/A     18  16  93 CALM      29.92S
EUREKA           N/A     34  23  64 MISG      29.90R
HAMILTON         N/A     28  21  74 S8        29.95F WCI  20
RONAN            N/A     30  27  86 SE6       29.95S WCI  24
$$

MTZ008-052>055-200900-
SOUTHWEST MONTANA

CITY           SKY/WX    TMP DP  RH WIND       PRES   REMARKS
BOZEMAN        FAIR      13  11  92 SW5       29.90R
DILLON         FAIR      14  12  92 S14       29.88S WCI  -1
ENNIS          PTCLDY    19  12  73 CALM      29.92S
W YELLOWSTONE  CLOUDY    21  19  93 CALM      29.83S
THREE FORKS      N/A     23  19  85 CALM      29.91R
TWIN BRIDGES     N/A     17  10  74 CALM      29.91R
$$

MTZ009-010-012-014-046-048-049-054-200900-
EAST SLOPES AND CENTRAL MONTANA

CITY           SKY/WX    TMP DP  RH WIND       PRES   REMARKS
CUT BANK       FAIR      29  19  66 W23       29.74S WCI  15
GREAT FALLS    FAIR      28  17  63 SW15      29.80S WCI  16
MALMSTROM AFB  FAIR      26  20  77 SW14      29.82R WCI  14
HELENA         MOCLDY    32  20  61 W6        29.89R WCI  26
AUGUSTA        FAIR      29  16  57 W20       29.78R WCI  16
BOWMANS CRNR   FAIR      24  17  73 SW14      29.79S WCI  12
CHOTEAU          N/A     30  14  51 S5        29.79S
FAIRFIELD      FAIR      30  17  58 SW16      29.78S WCI  18
POWER          FAIR      20  14  77 SW7       29.78S WCI  12
RAYNESFORD     FAIR      31  15  50 SW18      29.80S WCI  20
ULM            FAIR      27  19  72 S7        29.82S WCI  19
WHITE SULPHUR    N/A     27  16  63 S7        29.84S WCI  19
$$

MTZ011-013-016-021-045-047-050-051-200900-
NORTH CENTRAL MONTANA

CITY           SKY/WX    TMP DP  RH WIND       PRES   REMARKS
HAVRE          FAIR      25  20  81 SW18      29.77R WCI  11
LEWISTOWN      FAIR      25  16  68 SW16      29.80F WCI  12
N BAR RANCH    FAIR      28  12  50 W15G24    29.79F WCI  17
CHINOOK          N/A     34  21  60 SW18      29.75S WCI  23
DENTON         FAIR      24  17  73 MISG      29.77S
GEYSER         FAIR      25  18  73 W10       29.79S WCI  15
GRASS RANGE    FAIR      28  18  65 W17       29.77S WCI  16
STANFORD       FAIR      28  16  59 W18       29.78S WCI  16
WINIFRED       FAIR      29  19  67 SW16      29.78F WCI  17
$$

MTZ017>020-022>027-061-062-200900-
NORTHEAST MONTANA

CITY           SKY/WX    TMP DP  RH WIND       PRES   REMARKS
GLASGOW        FAIR      24  17  74 SW3       29.75S
GLENDIVE       FAIR      30  27  88 W5        29.79R
JORDAN           N/A     20  16  84 W7        29.78R WCI  11
MALTA          CLEAR     10   9  92 SW5       29.76S
SIDNEY         FAIR      32  28  85 SW12      29.77R WCI  23
WOLF POINT     FAIR      24  20  84 SW6       29.76S WCI  17
PLENTYWOOD       N/A     28  21  74 CALM      29.71R
POPLAR           N/A     27  21  80 W6        29.76S WCI  20
$$

MTZ028>42-056>058-200900-
SOUTHCENTRAL AND SOUTHEAST MONTANA

CITY           SKY/WX    TMP DP  RH WIND       PRES   REMARKS
BAKER          CLOUDY    34  33  96 W12       29.79S WCI  25
BILLINGS       CLOUDY    32  26  78 VRB5      29.84R
LIVINGSTON     FAIR      22  18  85 NW12      29.86R WCI  10
MILES CITY     FAIR      34  31  88 W9        29.81S WCI  27
BIG TIMBER     MOCLDY    27  21  80 W22       29.84S WCI  12
FORSYTH          N/A     36  30  80 SW5       29.81F
HARLOWTON      FAIR      23  16  74 W12       29.81R WCI  12
LAUREL           N/A     32  27  80 S3        29.85S
ROUNDUP          N/A     30  16  56 W13       29.74R WCI  20
$$

REGIONAL REPORTS...DAKOTAS

CITY           SKY/WX    TMP DP  RH WIND       PRES   REMARKS
WILLISTON      FAIR      32  26  78 SW3       29.74R
MINOT          FAIR      34  25  69 SW13      29.69R WCI  25
DICKINSON      CLOUDY    34  31  88 W9        29.75R WCI  27
BEACH          CLOUDY    32  32 100 S10       29.81R WCI  24
CROSBY         FAIR      25  21  86 W14       29.70S WCI  13
TIOGA          FAIR      28  28 100 W12       29.72R WCI  18
WATFORD CITY   FAIR      30  27  86 W8        29.74S WCI  23
BISMARCK       CLOUDY    37  30  75 W8        29.77R WCI  31
GRAND FORKS    FAIR      29  25  85 W10       29.70R WCI  20
FARGO          FAIR      28  25  88 W5        29.71F
BUFFALO SD       N/A     35  34  96 W7        29.74R WCI  29
RAPID CITY     CLOUDY    34  30  85 N7        29.79F WCI  28
$$

REGIONAL REPORTS...WYOMING/IDAHO/WASHINGTON

CITY           SKY/WX    TMP DP  RH WIND       PRES   REMARKS
GILLETTE       LGT SNOW  32  32 100 N9        29.80S FOG     WCI  24
SHERIDAN       LGT SNOW  32  31  96 NW12      29.85R FOG     WCI  23
BUFFALO WY     LGT SNOW  31  27  85 N18G25    29.82R FOG     WCI  19
CODY           FAIR      29  26  89 CALM      29.84S
YELLOWSTONE LA   N/A     18  16  92 CALM      29.82S
IDAHO FALLS    MOCLDY    30  27  88 SW10      29.91S WCI  21
SALMON         MOCLDY    25  20  81 CALM      29.98S
BOISE          FAIR      28  24  85 CALM      30.01S
SPOKANE        CLOUDY    32  30  92 S9        29.92F WCI  24
$$

REGIONAL REPORTS...ALBERTA

CITY           SKY/WX    TMP DP  RH WIND       PRES   REMARKS
CALGARY        CLEAR     32  10  40 W15G22    29.64R WCI  22
CARDSTON         N/A     32  16  51 W12G18      N/A  WCI  23
EDMONTON       CLOUDY    25  21  86 W2        29.64R
FORT MCMURRAY  FLURRIES  18  14  86 NW6       29.66R WCI   9
HIGH LEVEL     CLOUDY    18  14  86 NW10      29.70R WCI   6
LETHBRIDGE     CLEAR     34  19  55 W25G31    29.70S WCI  21
LLOYDMINSTER   CLOUDY    27  23  86 W9        29.57R WCI  17
MEDICINE HAT   CLEAR     30  21  69 W16       29.69S WCI  19
PEACE RIVER    PTCLDY     7   3  85 NW3       29.65S
PINCHER CREEK  MOCLDY    30  19  64 W25G32    29.74R WCI  16
WATERTON GATE    N/A     30  14  51 SW15G25     N/A  WCI  19
$$

REGIONAL REPORTS...SASKATCHEWAN

CITY           SKY/WX    TMP DP  RH WIND       PRES   REMARKS
CORONACH         N/A     25  19  80 SE2         N/A
ESTEVAN        PTCLDY    18  16  93 SW9       29.68S WCI   6
MOOSE JAW        N/A     25  19  80 SW7         N/A  WCI  17
PRINCE ALBERT  CLOUDY    28  23  80 W5        29.56S
REGINA         MOCLDY    27  23  86 VRB2      29.64R
ROCKGLEN         N/A     23  18  80 W14         N/A  WCI  11
SASKATOON      MOCLDY    25  21  86 SW7       29.60R WCI  17
SWIFT CURRENT  MOCLDY    27  21  80 SW14G21   29.63S WCI  15
VAL MARIE        N/A     18  12  79 N5          N/A
$$




USA.gov is the U.S. government's official web portal to all federal, state and local government web resources and services.